Location: Newark
(7.1028°S, 35.3258°W)
Time: 17:54:29
(UTC+00:00)

LightSail 2 - Visible Passes

Search period start: 20 January 2020 00:00
Search period end: 30 January 2020 00:00
Orbit: 703 x 720 km, 24.0° (Epoch: 20 January)

Date Brightness Start Highest point End Pass type
(mag) Time Alt. Az. Time Alt. Az. Time Alt. Az.
20 Jan 6.1 06:06:18 44° SSE 06:06:18 44° SSE 06:10:01 10° SE visible
20 Jan 7.0 07:46:59 10° WSW 07:50:47 21° SSW 07:54:36 10° SSE visible
21 Jan 8.1 05:11:26 11° ESE 05:11:26 11° ESE 05:11:41 10° ESE visible
21 Jan 6.6 06:50:23 21° SW 06:52:13 26° SSW 06:56:31 10° SE visible
22 Jan 6.9 05:55:29 27° SSE 05:55:29 27° SSE 05:58:22 10° SE visible
22 Jan 7.4 07:36:47 10° SW 07:39:45 15° SSW 07:42:42 10° SSE visible
23 Jan 7.1 06:39:32 16° SW 06:41:05 18° SSW 06:44:37 10° SSE visible
24 Jan 7.5 05:44:36 18° SSE 05:44:36 18° SSE 05:46:32 10° SE visible
24 Jan 7.6 07:26:42 10° SSW 07:28:46 12° S 07:30:50 10° SSE visible
25 Jan 7.4 06:28:37 13° SSW 06:30:02 14° S 06:32:41 10° SSE visible
26 Jan 7.9 05:33:42 13° SSE 05:33:42 13° SSE 05:34:35 10° SSE visible
26 Jan 7.7 07:16:18 10° SSW 07:17:49 11° S 07:19:18 10° SSE visible
27 Jan 7.6 06:17:45 11° SSW 06:19:01 12° S 06:20:52 10° SSE visible
28 Jan 7.7 07:05:01 10° SSW 07:06:50 12° S 07:08:39 10° SSE visible
29 Jan 7.7 06:06:59 11° S 06:08:01 11° S 06:09:35 10° SSE visible
29 Jan 7.6 07:51:18 10° SSW 07:54:32 16° SSE 07:57:45 10° SE visible
29 Jan 7.3 22:03:29 10° N 22:04:11 11° N 22:04:11 11° N visible
